Location: Middlebury
(44.0133°N, 73.1813°W)
Time: 03:19:57
(UTC-04:00)

Envisat - Pass Details

Date: 03 February 2022
Orbit: 764 x 765 km, 98.2° (Epoch: 21 May)

Event Time Altitude Azimuth Distance (km) Brightness Sun altitude
Rises 05:59:46 0° 1° (N) 3,241 6.1 -12.5°
Reaches altitude 10° 06:02:29 10° 347° (NNW) 2,311 5.2 -12.1°
Maximum altitude 06:06:24 23° 296° (WNW) 1,588 4.1 -11.4°
Drops below altitude 10° 06:10:19 10° 246° (WSW) 2,300 5.0 -10.7°
Sets 06:13:01 0° 232° (SW) 3,222 5.9 -10.2°
